Theta_e
314 314 314 314 314 314 315 317 319 321 323 324 325 325 326 326 326 327 327 327 327 326 326 326 326 326 326 325 325 325 325 324 324 324 323 323 323 323 323 322 322 322 322 322 323 322 322 321 321 321 322 321 320 321 321 321 321 320 320 319 318 318 317 315 312 311 316 320 319 319 320 320 318 320 319 319 319 320 314 319 319 319 319 319 319
313 313 313 313 313 313 314 315 318 319 320 321 323 323 325 325 326 326 325 326 326 326 326 326 326 326 325 325 324 324 325 324 324 323 322 321 321 322 322 321 321 321 321 320 321 321 321 320 320 321 321 320 320 319 319 319 319 319 319 318 318 318 320 316 314 313 311 317 317 319 317 320 317 319 317 316 316 317 317 317 318 318 318 318 318
312 312 311 311 312 313 313 314 316 317 318 319 321 322 323 324 325 325 325 325 326 325 325 325 325 325 324 324 324 323 324 323 323 322 321 321 320 321 321 321 320 319 319 319 319 319 318 318 319 320 321 319 319 319 319 318 319 318 317 318 317 318 319 318 315 311 312 312 315 314 316 317 316 315 316 317 317 317 315 315 315 316 317 317 316
310 310 310 310 311 312 313 313 314 315 316 317 319 321 322 323 324 323 324 324 324 324 324 325 324 324 323 323 323 322 322 322 321 321 320 320 320 320 320 320 319 319 318 318 318 317 317 317 317 318 317 316 316 316 317 317 316 316 316 316 316 315 317 317 317 314 313 311 313 313 314 313 313 314 316 316 315 314 314 314 314 314 314 313 313
309 309 309 309 310 311 312 313 313 314 315 316 318 320 320 321 321 321 322 322 322 322 321 322 322 322 321 321 321 321 320 320 319 319 320 320 319 319 319 319 319 319 319 318 311 317 316 316 316 315 315 315 315 314 314 314 314 313 313 313 313 314 314 314 314 314 311 310 311 313 312 311 314 313 314 311 311 311 311 309 310 309 309 310 311
309 309 309 309 309 310 310 311 311 312 313 315 316 317 318 318 318 318 320 320 321 321 320 319 319 320 320 320 320 320 319 319 318 318 318 318 318 319 319 318 317 318 318 318 317 316 315 314 314 315 314 313 313 313 313 312 312 312 311 311 312 312 312 312 313 311 311 310 309 308 311 309 310 311 312 309 307 305 305 306 307 308 307 306 307
308 307 308 308 308 309 309 309 310 311 311 312 313 313 313 314 314 315 315 317 318 317 316 316 314 316 317 318 318 318 318 318 318 318 318 317 317 316 317 316 316 316 317 317 317 316 315 314 314 313 313 313 313 312 311 311 311 310 310 312 312 310 310 311 311 310 309 308 308 308 308 309 309 307 307 303 303 304 303 302 301 304 304 304 303
306 305 306 306 306 307 308 309 309 309 310 310 310 309 309 309 309 310 309 310 313 313 311 312 312 311 314 314 315 316 316 316 316 316 316 316 315 314 314 314 314 314 314 314 313 313 312 312 312 312 311 312 312 311 310 309 309 308 308 309 309 308 308 308 308 308 307 306 305 305 307 305 306 306 303 303 301 302 303 300 297 298 301 302 302
304 304 304 304 305 306 307 307 306 306 306 306 305 305 305 305 305 305 303 304 307 308 309 309 309 308 309 310 309 310 311 312 313 312 312 313 314 313 312 311 311 311 311 311 310 310 308 306 307 304 296 292 293 297 298 300 307 305 304 305 306 306 305 304 305 305 304 304 303 304 303 302 303 302 301 300 299 299 300 300 298 299 299 298 299
303 303 302 303 304 305 305 304 303 303 302 302 302 301 301 300 299 300 301 301 302 303 304 305 306 306 305 304 306 307 308 310 302 300 302 310 312 312 312 311 310 310 308 307 304 300 298 301 296 288 287 288 288 289 291 292 294 301 305 303 303 303 304 303 303 303 302 301 300 300 299 299 300 301 300 300 300 300 298 298 296 297 296 296 298
303 302 303 303 304 303 302 301 300 299 300 300 299 297 297 297 297 298 299 299 299 298 300 302 303 303 303 303 301 301 304 305 296 299 300 301 308 311 311 310 308 307 307 305 301 296 295 295 296 290 289 287 290 289 291 290 291 291 292 293 296 303 302 301 301 301 299 298 299 299 298 298 299 300 299 299 298 298 297 296 295 294 293 292 292
303 303 303 304 304 303 302 301 299 298 297 297 296 295 295 295 294 294 294 294 295 295 296 300 299 298 299 299 299 299 299 293 295 297 298 299 300 307 308 305 303 303 302 303 300 298 296 295 295 295 296 297 298 296 293 291 291 291 290 291 291 291 294 299 298 298 298 297 296 297 298 298 299 299 298 298 297 295 295 294 293 293 292 291 292
302 303 303 303 303 302 301 300 299 299 298 297 296 295 294 295 295 295 295 296 296 296 297 297 295 296 297 297 297 295 296 292 294 295 295 296 297 299 302 301 298 298 297 297 296 295 295 295 294 295 295 288 294 298 297 295 290 290 290 290 290 291 293 293 293 298 299 297 297 297 298 298 297 298 298 296 295 292 293 292 293 292 292 291 292
302 302 302 302 302 301 300 300 300 300 299 298 297 296 296 296 297 298 297 295 296 297 296 296 296 296 297 298 297 296 294 291 293 293 293 294 295 297 301 299 298 297 296 296 295 295 296 296 296 294 295 294 295 295 295 295 295 294 293 294 295 292 290 291 290 289 291 295 296 295 297 298 296 297 298 297 294 292 292 291 292 291 291 291 293
302 302 301 301 301 300 299 299 300 300 300 299 298 298 298 300 299 299 297 296 299 299 297 298 297 296 296 297 297 295 294 291 292 293 293 293 293 294 296 296 295 295 294 294 294 295 295 295 295 294 294 293 294 293 294 294 294 293 293 293 293 294 294 294 294 295 294 295 295 295 296 297 297 296 296 296 295 295 295 293 292 292 291 291 291
303 302 301 301 300 300 299 299 300 300 299 298 297 298 298 299 297 296 296 297 298 298 297 297 296 295 295 295 295 294 294 290 291 292 292 293 292 294 295 295 294 293 292 292 292 293 292 292 292 293 292 292 290 290 291 293 293 291 290 291 291 292 293 291 292 293 294 295 296 296 296 296 294 295 294 294 294 294 292 291 290 289 288 288 288
302 302 301 301 300 299 299 299 299 299 297 297 297 297 297 296 295 293 295 295 295 295 295 295 295 295 293 294 295 295 294 290 290 291 292 292 291 294 294 294 293 292 291 291 292 291 291 291 292 292 292 292 290 290 290 289 291 290 289 290 291 291 291 293 291 291 291 291 292 292 293 293 294 293 293 293 292 292 290 288 287 288 288 287 288
301 301 301 301 300 299 298 299 298 297 296 296 296 297 297 296 295 292 294 294 293 294 295 294 294 294 293 294 295 294 294 290 289 291 291 291 292 294 293 293 292 291 290 290 290 290 290 286 288 291 290 291 289 289 289 289 290 290 290 288 286 286 289 292 293 293 290 289 290 290 290 291 291 291 291 291 291 291 288 286 288 289 287 287 286
301 301 301 301 300 299 298 298 298 297 296 296 297 295 294 293 291 291 293 293 294 294 291 292 292 290 293 293 288 292 293 289 288 290 290 290 291 294 292 291 291 290 289 288 289 289 289 287 285 287 289 290 288 289 289 289 291 291 290 289 288 288 292 293 292 291 291 290 290 290 290 289 290 290 290 290 290 289 289 289 289 288 287 287 288
303 302 302 301 300 298 298 296 297 296 295 296 296 295 293 291 290 290 291 292 291 291 291 292 290 290 289 290 290 292 291 291 289 290 290 289 289 291 290 291 290 290 290 290 288 290 290 289 286 285 287 288 288 289 289 289 292 292 291 290 288 290 293 290 289 290 289 289 289 289 288 289 289 289 289 290 290 289 290 290 290 290 288 287 288
303 302 301 300 299 297 297 296 296 295 296 295 293 292 291 291 290 290 290 290 290 290 289 289 288 288 288 289 290 290 291 291 288 289 289 288 288 289 289 292 292 290 289 289 290 291 290 292 292 288 288 289 290 290 290 290 290 292 292 291 291 292 289 288 288 287 289 287 287 287 287 287 287 288 289 289 289 290 290 291 291 291 289 288 288
300 300 299 299 298 296 296 295 294 293 292 291 290 290 290 289 289 290 290 289 287 287 287 288 288 287 287 288 287 288 287 287 289 288 289 288 287 287 288 289 290 289 289 289 291 292 291 291 291 288 287 288 289 289 289 290 290 290 290 290 290 290 289 289 289 288 288 287 287 287 287 287 288 287 288 289 289 289 290 291 291 291 291 291 289
299 298 297 296 295 295 294 292 291 292 290 290 289 289 289 288 288 288 288 288 287 286 287 287 287 287 287 288 288 288 288 287 287 289 288 288 288 288 289 289 289 291 290 288 290 290 290 289 288 285 286 287 288 288 289 289 289 290 290 290 290 289 289 289 288 287 287 286 286 286 286 287 287 287 288 288 289 289 290 291 291 290 290 290 290
297 296 294 294 294 291 291 290 290 289 289 289 289 288 288 287 288 288 288 288 287 287 287 287 288 287 287 287 288 287 288 288 286 287 288 289 289 290 289 289 288 288 288 288 288 288 288 288 287 286 286 286 287 288 288 288 288 289 289 289 288 287 288 287 286 286 286 285 285 286 286 287 287 287 287 288 288 288 288 288 289 289 289 289 289
293 291 291 291 289 289 289 289 289 288 288 289 288 288 286 287 287 287 287 288 288 287 288 288 288 288 287 286 286 286 286 287 288 287 286 287 289 289 289 288 288 287 286 286 287 287 287 287 286 286 286 287 287 288 288 287 287 287 287 286 285 287 287 286 286 285 285 285 285 286 286 286 287 287 288 288 288 288 288 288 288 288 288 288 288
289 289 289 289 288 287 287 287 287 287 287 288 288 288 287 287 287 287 288 288 287 287 287 288 288 287 287 286 285 285 285 285 285 285 285 285 286 287 287 287 285 285 285 286 285 286 286 286 286 286 286 286 287 286 287 287 286 285 285 285 287 287 286 286 285 285 285 285 285 285 285 286 287 287 287 287 287 287 287 287 287 287 288 287 287
288 288 287 287 287 287 287 287 287 287 287 288 288 288 288 288 287 287 288 288 287 287 287 286 287 287 286 286 285 284 284 284 284 284 285 285 285 285 285 285 284 284 285 285 285 285 285 285 286 286 286 285 285 285 285 285 286 286 287 287 287 286 286 286 285 285 285 285 285 286 286 287 287 287 287 287 286 287 287 287 286 286 287 287 286
288 287 287 287 287 287 287 285 286 287 287 287 287 287 287 287 287 287 287 287 287 286 286 286 286 286 286 285 284 284 284 285 284 284 285 285 285 285 285 284 284 285 285 285 285 285 285 285 284 285 285 285 285 285 286 286 286 286 286 286 286 286 286 285 285 286 286 286 286 286 286 286 286 286 286 286 286 286 287 286 286 286 286 286 284
286 286 287 287 287 286 286 286 286 286 285 284 284 285 285 286 285 284 283 285 286 286 286 286 285 286 285 285 284 284 284 284 284 285 285 285 285 284 284 284 285 285 285 286 285 285 285 285 284 284 284 284 284 284 285 285 285 285 284 285 285 286 286 286 285 286 286 286 285 285 285 285 285 286 285 285 285 286 287 286 286 286 286 286 284
286 286 286 286 285 286 285 285 285 285 284 283 282 281 281 283 283 283 283 284 284 284 284 284 284 284 284 284 284 284 284 284 285 285 285 285 285 285 285 285 285 285 285 285 285 284 284 284 283 283 283 283 283 284 284 284 284 284 285 285 285 286 286 286 285 285 285 285 285 284 284 285 284 285 285 285 285 286 286 285 285 286 285 285 284
285 285 285 284 284 284 284 283 283 283 282 282 281 280 279 280 282 283 283 283 283 284 284 284 284 284 284 283 283 284 284 285 284 284 284 284 285 285 284 284 284 285 285 284 283 283 283 282 282 282 283 283 283 283 283 283 283 283 284 285 285 285 284 284 284 285 284 284 284 284 284 284 284 284 284 284 284 285 286 286 286 286 285 285 284
283 282 283 283 283 282 283 282 282 281 281 281 280 279 278 277 278 280 282 282 282 283 283 283 283 283 282 282 282 281 282 283 283 282 282 282 282 283 283 283 284 284 285 285 282 282 282 282 282 283 283 283 283 283 283 283 283 283 283 283 283 284 283 283 284 284 284 284 284 284 284 284 284 285 285 285 285 285 285 285 285 284 284 285 285
278 279 280 280 280 280 280 279 279 279 278 278 278 278 277 277 275 275 278 280 280 281 281 281 281 281 281 281 281 281 281 281 281 281 281 281 281 282 283 284 284 284 284 282 282 282 282 282 283 283 282 282 282 282 283 283 283 283 283 282 282 283 284 284 285 284 284 284 284 284 284 284 284 284 284 284 283 283 283 283 283 283 283 283 284
275 275 276 277 277 277 277 277 277 276 277 276 276 276 276 276 276 276 275 275 276 277 278 279 279 279 280 280 280 280 280 280 280 280 281 281 282 282 282 283 283 284 283 282 282 282 282 281 281 281 281 282 282 282 282 282 282 282 282 283 283 283 283 283 282 281 281 281 281 281 281 281 281 281 281 281 282 282 281 281 281 281 281 282 282
273 273 274 274 275 275 275 275 275 276 276 275 275 275 275 275 275 275 275 275 274 274 273 274 276 278 277 278 279 279 280 280 280 281 281 281 282 282 282 281 280 280 280 280 280 280 279 280 280 281 281 280 280 279 278 278 278 277 277 278 278 279 279 279 278 279 278 278 278 278 279 279 280 280 280 279 279 279 279 279 280 280 280 281 282
271 271 271 272 273 273 274 274 274 274 274 274 274 275 275 274 274 274 274 274 274 273 272 273 274 276 277 277 277 278 279 280 280 279 279 279 279 279 277 277 277 277 278 279 279 279 279 278 277 276 276 275 276 275 275 275 275 275 275 275 276 276 276 276 276 276 276 276 276 277 277 277 277 277 277 277 277 278 278 279 279 280 280 280 280
269 269 270 270 271 271 272 272 273 273 274 274 274 274 274 273 273 273 273 273 272 272 271 273 273 274 274 274 275 276 278 278 278 278 278 278 278 277 276 277 276 277 276 276 275 275 274 274 274 273 273 273 273 273 273 273 273 273 273 274 273 273 274 274 274 274 274 274 275 275 274 274 275 275 275 275 276 276 276 276 276 276 277 277 278
268 268 269 269 269 270 270 270 270 271 271 271 272 272 272 272 272 272 271 271 271 271 271 272 272 272 271 272 274 274 275 276 277 277 276 276 275 274 274 274 274 273 271 271 271 271 271 271 271 270 271 271 270 270 270 270 271 271 271 271 271 272 272 272 273 273 273 272 272 272 273 273 273 273 273 272 272 272 273 274 274 274 275 276 276
267 268 268 269 269 269 269 269 269 269 269 269 270 270 270 270 270 270 270 270 270 271 271 271 271 271 271 272 272 274 274 273 273 273 273 273 273 273 272 271 271 270 269 268 268 268 268 268 268 268 268 268 268 268 268 268 268 268 269 269 269 270 270 270 270 270 270 270 271 271 271 271 271 271 271 271 271 272 272 272 272 272 272 272 273
266 266 267 268 268 268 268 268 268 268 268 268 268 269 269 269 269 269 270 270 270 271 271 271 270 270 271 272 272 273 271 272 272 271 271 271 270 270 269 268 267 267 267 267 267 266 266 266 266 266 266 266 266 266 267 267 267 268 268 268 267 267 267 268 268 268 268 269 269 269 270 270 270 270 270 270 270 271 270 270 271 272 272 272 272
265 266 266 267 267 267 267 267 267 267 268 268 268 268 269 269 269 269 270 270 271 271 270 270 270 270 271 271 272 272 270 269 269 269 269 269 269 268 266 266 266 266 266 265 265 265 265 265 265 265 265 265 266 266 266 266 266 266 266 266 266 266 266 266 267 267 267 268 268 268 268 269 268 268 268 269 270 270 270 271 271 271 271 271 271
264 265 265 265 266 266 266 266 266 267 267 268 268 268 268 269 269 269 269 270 270 270 269 269 269 268 269 269 269 269 268 268 268 268 268 268 267 266 265 265 265 264 264 264 264 264 264 264 264 264 264 264 265 265 265 264 265 264 264 264 264 264 265 265 266 266 266 266 266 266 266 267 267 267 267 268 268 268 268 269 269 269 269 269 270
263 264 264 264 264 264 265 265 266 266 266 266 266 267 267 267 268 268 268 268 268 269 269 269 267 266 266 267 267 267 266 266 266 266 266 266 266 265 264 263 264 264 264 264 264 264 263 263 263 264 264 264 264 264 264 264 264 263 264 263 263 264 264 264 265 265 266 265 265 265 265 266 266 266 266 267 267 267 267 267 267 268 268 268 269
263 263 263 263 264 264 264 264 265 265 265 266 266 266 266 266 266 266 266 267 267 267 267 266 265 265 264 265 265 265 264 264 264 265 265 265 264 263 263 263 263 263 263 263 263 263 262 262 262 263 263 263 263 263 263 263 263 263 263 262 263 263 264 264 264 264 265 264 264 265 265 265 266 266 266 267 267 266 267 267 267 268 268 268 268
262 262 263 263 263 263 264 264 264 265 265 265 265 265 266 266 266 266 266 266 266 265 265 264 264 264 264 263 263 263 263 263 263 263 263 263 263 262 262 262 262 262 262 262 262 262 262 262 262 261 261 262 262 262 263 263 263 263 263 262 262 262 263 263 264 264 265 264 264 264 265 265 265 266 266 266 267 267 267 267 267 268 267 268 268
262 262 262 262 263 263 263 264 264 264 264 264 264 264 265 264 265 265 265 265 265 264 264 263 263 263 263 263 263 262 262 262 262 263 262 262 262 261 262 262 262 261 262 262 262 261 261 261 261 261 261 261 261 261 262 262 263 263 263 263 263 263 264 264 265 265 265 265 264 265 265 265 265 266 266 266 267 267 267 267 267 267 267 267 268
261 261 262 262 262 263 263 264 264 264 264 264 264 263 263 263 264 264 264 263 263 263 262 262 262 262 262 262 262 261 262 261 261 262 261 261 261 261 261 261 261 261 261 261 261 261 261 260 260 260 260 260 261 260 261 262 262 263 263 264 264 264 264 265 265 265 265 265 266 265 265 265 266 266 267 267 266 266 266 266 267 267 267 267 268
261 261 261 262 262 262 262 262 262 262 263 262 262 262 263 263 263 263 262 262 262 262 261 261 261 261 261 261 261 261 261 261 261 261 261 260 261 260 260 260 260 260 260 260 260 260 260 260 260 260 260 260 260 260 261 261 262 262 263 264 264 265 265 265 265 265 266 266 267 267 266 266 266 266 266 266 266 266 266 266 267 267 267 267 268
260 261 261 261 261 261 261 261 261 261 261 261 261 261 262 262 262 262 261 261 261 261 260 260 260 260 260 260 260 260 260 260 260 260 260 260 260 260 260 259 259 259 259 259 259 259 259 259 259 259 259 260 260 260 260 261 261 262 263 263 264 264 265 265 265 266 267 267 267 267 267 266 266 266 266 266 266 266 266 266 266 267 267 267 268
260 260 260 260 260 260 261 260 260 260 260 260 260 260 261 260 260 260 260 260 260 260 260 260 259 259 259 259 259 259 259 259 259 259 259 259 259 259 259 259 258 258 259 259 259 259 259 259 259 259 259 259 260 260 261 261 262 262 262 263 264 265 265 265 266 267 267 267 267 266 266 266 266 266 266 266 266 266 266 266 267 267 268 268 268
259 259 259 259 259 260 260 260 260 260 259 260 260 260 260 259 260 259 259 259 259 259 259 259 259 259 258 259 259 259 258 259 259 259 259 259 258 258 258 258 258 258 258 258 259 259 259 259 259 259 259 260 260 261 261 261 262 262 263 264 264 265 266 266 267 267 267 266 267 267 266 266 266 266 266 267 267 266 267 267 267 267 268 268 269
Wind_Speed
11 11 9 10 11 13 14 13 15 13 13 13 13 14 12 12 12 11 9 10 9 10 11 12 12 11 11 11 11 12 14 14 13 13 13 14 13 14 13 13 14 12 10 10 9 10 10 10 10 9 9 9 8 8 8 9 8 8 8 8 10 8 9 10 13 12 7 9 11 9 9 11 12 10 11 11 10 10 10 12 13 11 10 10 10
11 11 8 9 11 14 15 13 11 11 13 13 14 14 13 12 12 10 11 10 10 10 11 10 10 11 11 11 12 15 15 15 14 13 13 13 13 10 11 12 12 11 10 12 10 9 11 11 10 10 9 9 8 8 8 7 8 9 9 10 10 9 8 9 10 10 13 3 7 10 11 6 9 8 10 11 12 11 12 12 10 10 10 10 10
8 7 9 11 14 14 12 12 11 12 13 13 14 14 13 11 9 10 10 9 9 10 10 10 10 11 10 12 14 14 15 14 13 13 13 14 13 12 11 11 12 11 10 10 9 8 9 9 10 9 8 9 9 9 8 8 8 9 8 8 9 10 9 11 10 9 9 9 5 8 9 9 9 11 10 8 9 10 12 11 10 9 8 10 10
8 9 11 13 14 12 12 12 12 12 13 13 14 13 10 9 7 9 10 8 8 8 10 11 12 11 14 14 14 14 13 13 13 13 13 13 13 13 11 11 11 10 10 10 9 9 9 9 9 8 8 8 8 8 8 7 7 7 8 8 7 7 7 7 8 9 7 9 7 8 8 9 10 8 6 7 10 10 9 10 10 10 10 9 10
8 10 10 13 12 12 13 11 11 13 14 12 13 11 9 8 7 9 9 10 10 11 12 13 13 14 13 15 14 14 14 13 13 13 12 12 13 13 12 11 11 11 11 11 10 10 10 10 9 8 8 9 9 9 7 8 7 7 7 7 6 6 5 6 7 7 9 10 10 8 9 8 7 7 8 9 9 8 8 10 10 10 10 10 9
8 9 9 10 11 12 12 10 12 14 14 12 11 10 8 8 9 8 10 11 13 13 12 11 11 14 14 14 14 14 13 13 14 14 13 11 11 12 11 11 11 11 11 11 11 9 9 9 9 9 9 10 9 7 7 8 7 7 7 6 6 5 6 6 6 7 8 11 11 8 5 9 8 8 1 2 5 10 10 9 8 7 7 8 8
7 8 8 9 10 11 11 12 12 12 11 10 7 6 7 8 8 8 7 8 11 13 11 11 9 11 12 13 13 14 13 14 14 14 14 13 13 11 11 11 10 10 10 9 9 9 9 9 9 8 9 9 9 8 7 7 8 8 8 8 6 7 6 6 6 7 6 7 7 9 9 8 8 9 3 1 5 7 9 9 9 6 7 8 10
7 8 8 9 11 12 11 9 8 7 5 5 6 6 6 6 7 6 7 11 12 12 11 11 10 9 11 11 12 11 12 13 13 13 12 13 11 10 10 10 9 9 8 8 8 8 8 8 8 8 8 8 8 7 6 7 6 6 5 5 5 5 7 7 6 5 7 9 9 8 8 9 7 4 3 5 7 5 4 7 10 10 9 8 9
8 8 8 10 12 10 6 5 5 6 5 6 6 6 7 7 8 9 9 9 8 10 10 10 10 11 9 8 7 7 8 9 8 8 9 10 10 10 9 8 8 8 8 8 7 7 6 5 4 4 4 6 6 5 4 4 6 6 5 5 6 6 5 4 5 4 4 5 7 8 9 8 7 7 6 5 6 7 8 7 10 10 10 10 8
8 8 10 11 10 6 7 6 5 4 6 7 7 6 7 9 9 10 11 10 9 8 8 8 9 10 9 8 8 9 9 8 9 12 10 9 9 8 9 9 9 8 8 7 5 4 6 5 5 8 9 8 8 8 7 6 4 3 5 5 5 5 6 6 6 6 7 8 10 7 7 8 5 5 6 6 6 7 7 6 9 9 10 10 6
8 8 11 11 7 7 7 7 6 7 8 6 6 8 10 9 9 9 9 9 9 8 8 9 9 8 9 10 9 8 8 8 12 13 15 14 10 10 10 9 8 7 7 8 8 7 6 5 6 6 7 7 6 8 8 7 7 6 5 5 5 6 7 7 8 10 8 8 7 7 7 8 8 6 6 7 7 6 6 6 9 8 7 8 8
8 9 11 9 7 8 7 7 7 8 8 10 10 9 8 8 10 10 9 9 9 8 8 9 8 7 7 7 8 8 7 6 10 12 12 13 10 8 7 7 8 7 7 7 7 8 7 5 4 4 4 5 6 6 6 5 6 6 6 6 6 6 6 8 8 8 9 8 7 8 7 8 8 6 6 5 5 2 5 7 7 7 6 5 6
9 9 9 9 9 8 6 7 8 7 9 9 9 8 9 10 10 11 12 10 8 9 9 8 8 7 7 8 8 6 6 8 9 10 10 10 10 7 6 7 8 6 6 6 7 7 5 5 5 4 4 6 5 6 6 6 6 6 4 4 4 6 6 5 5 7 7 8 8 8 8 6 7 8 5 2 1 6 7 7 6 6 6 7 9
9 11 10 10 10 8 7 8 8 8 7 8 9 8 9 10 9 8 7 8 9 8 7 9 7 8 8 8 7 6 6 7 9 10 10 10 10 8 6 6 5 5 5 5 5 6 6 6 5 5 6 7 7 7 7 7 7 7 6 6 7 6 5 5 6 6 5 6 8 9 8 6 7 7 7 6 7 7 7 7 7 8 7 9 11
10 11 11 10 8 8 9 9 9 7 7 7 8 10 11 10 10 9 7 8 10 9 9 8 8 8 8 7 8 8 5 9 9 9 9 9 9 6 5 4 4 5 5 5 6 6 7 6 6 7 8 7 7 8 9 8 7 6 6 6 6 5 6 7 8 7 7 7 9 9 9 8 8 8 7 6 7 7 7 9 9 10 10 12 12
10 9 10 10 9 9 9 9 9 8 8 8 8 9 10 9 9 8 7 6 4 4 4 5 7 7 6 6 6 6 5 10 9 10 10 11 12 5 5 5 5 6 6 7 6 6 6 6 7 7 7 8 8 8 7 7 7 7 6 5 5 6 6 7 5 5 6 6 7 7 7 6 5 7 6 8 8 8 7 6 6 6 7 8 9
11 12 11 9 8 9 10 10 10 10 9 9 10 10 10 9 7 5 7 6 7 7 7 6 6 6 7 6 7 6 6 9 10 10 11 13 8 4 5 5 5 7 6 7 6 5 5 6 6 7 7 7 7 11 9 6 6 6 6 6 5 4 4 4 6 9 10 10 9 9 9 10 11 13 13 12 10 8 6 8 7 4 6 8 8
12 11 11 9 8 9 10 11 10 10 10 12 12 10 8 6 7 6 9 9 8 7 6 5 5 5 7 8 7 8 6 8 10 9 10 12 7 5 5 5 6 7 6 6 4 5 6 5 5 6 6 6 10 12 12 9 5 5 5 3 3 3 3 3 2 2 4 6 7 8 8 10 11 15 15 14 13 7 7 7 5 3 7 7 8
12 12 11 8 9 10 10 10 10 10 11 11 10 11 12 9 5 5 4 5 6 5 4 5 4 3 5 5 7 7 6 7 8 9 11 11 7 4 4 3 6 7 7 7 5 5 5 5 5 5 5 6 12 12 11 8 4 4 4 3 3 3 3 2 2 2 3 4 5 5 6 8 7 7 7 7 8 8 8 9 6 7 8 7 8
11 7 7 8 8 8 8 12 11 11 11 11 9 9 5 4 6 6 4 4 5 5 5 6 6 5 3 5 5 5 7 6 7 10 11 11 9 4 3 4 4 7 7 7 6 6 6 5 7 10 8 9 12 12 11 12 5 4 4 4 2 3 1 0 1 4 5 5 6 6 7 6 6 6 6 6 6 7 8 8 8 7 8 8 8
6 7 7 7 7 8 9 10 13 14 13 11 8 8 6 9 7 6 6 5 5 5 5 4 4 4 3 3 4 4 4 7 6 11 13 13 11 7 3 4 3 4 4 5 4 6 5 5 5 8 9 7 6 7 7 9 7 5 5 5 4 1 3 3 3 5 6 4 5 6 5 3 3 3 5 5 5 5 6 8 8 8 8 9 9
5 7 6 7 7 7 8 9 10 8 6 5 8 7 4 5 8 9 6 7 11 8 5 5 5 5 4 4 3 5 3 5 7 9 12 12 11 9 3 3 4 5 5 3 5 4 5 5 4 5 5 3 2 2 2 3 3 3 4 5 4 6 5 4 4 4 4 4 4 3 3 2 2 2 2 3 4 5 7 7 6 8 8 9 9
5 5 6 7 10 10 9 9 9 7 7 9 10 10 7 9 9 7 9 9 9 8 7 6 6 7 6 5 5 5 5 4 6 8 11 12 11 8 9 7 5 4 4 3 4 3 3 3 3 4 3 3 2 2 2 2 2 3 5 6 7 5 5 4 4 4 4 3 3 3 2 2 2 2 3 4 3 3 5 7 8 8 9 9 9
5 6 7 9 10 6 7 8 7 4 6 6 7 9 8 8 7 7 8 9 9 8 7 7 7 7 8 7 6 5 5 5 4 7 8 10 9 10 11 10 8 4 4 5 4 4 3 2 3 4 3 3 2 3 3 3 2 5 6 6 3 3 3 4 4 3 2 2 2 2 2 2 3 4 4 4 5 6 7 8 8 8 9 9 10
4 4 4 4 4 4 4 3 4 4 5 5 5 6 7 8 6 5 5 6 7 7 7 7 7 7 7 7 7 6 5 5 6 7 9 8 9 9 9 8 7 7 5 3 5 4 3 3 3 3 4 4 4 4 4 4 5 5 5 4 5 3 3 2 2 1 1 2 2 2 3 3 4 5 6 7 7 7 8 7 7 8 9 11 11
4 6 4 3 3 3 4 3 3 4 6 4 3 2 3 5 4 6 5 4 4 6 8 7 6 7 7 7 7 6 6 5 5 5 5 6 6 7 8 9 7 5 5 4 5 4 4 4 5 5 4 3 3 3 3 3 4 6 6 6 3 2 2 1 1 1 1 1 2 3 3 4 4 5 5 6 7 8 7 7 8 7 6 7 9
4 2 1 2 2 3 3 3 4 3 4 4 5 5 4 2 0 1 3 4 5 5 6 7 7 7 8 8 7 7 6 6 5 5 4 5 4 5 4 5 6 5 4 4 3 3 3 4 3 4 2 4 4 4 4 4 4 4 3 2 1 1 1 0 0 1 2 2 3 3 4 4 5 5 6 6 7 7 7 7 8 8 8 8 10
2 0 2 2 3 3 3 5 4 3 2 2 4 4 3 2 2 1 1 1 2 5 6 7 7 8 8 7 7 6 6 5 5 5 4 4 5 4 4 4 4 4 4 4 3 3 4 4 3 3 2 3 3 3 3 3 3 2 1 1 1 1 2 3 3 1 1 2 3 4 5 5 6 7 7 7 8 7 6 7 8 9 9 9 10
3 3 2 3 4 5 5 4 3 4 4 6 7 7 4 4 5 5 8 5 4 1 2 3 3 3 4 5 6 6 5 4 3 5 3 4 4 4 4 4 4 4 5 7 4 4 4 4 4 4 4 4 4 3 3 2 2 2 1 0 0 0 1 1 1 2 2 3 4 5 6 6 7 7 8 8 8 8 7 7 8 9 10 9 10
4 4 3 3 3 5 6 6 6 6 6 7 8 10 17 17 10 7 7 10 13 12 9 5 4 4 7 6 5 4 5 6 9 7 6 5 4 2 3 5 5 4 7 10 6 4 4 4 3 3 3 3 3 2 2 1 1 0 0 1 1 1 1 1 2 2 3 4 5 5 6 6 7 7 8 9 9 8 8 8 9 9 10 10 11
5 4 4 4 3 3 5 5 6 7 7 7 6 7 7 12 19 18 14 14 14 15 15 15 16 13 7 8 11 17 15 14 10 7 6 4 4 3 4 5 6 7 10 6 4 3 4 4 3 3 3 2 2 1 1 1 1 1 1 1 1 1 2 2 2 3 4 5 6 6 7 7 8 8 9 9 10 10 9 8 9 10 10 11 12
6 6 6 6 7 6 6 5 5 5 5 4 5 5 5 7 8 15 18 16 17 18 18 18 18 18 17 13 9 8 11 12 10 8 6 4 2 1 2 3 4 5 8 7 4 4 3 3 3 3 2 2 1 1 1 0 1 1 1 2 2 3 3 3 3 5 6 6 7 7 8 8 8 9 9 9 9 10 10 10 9 10 10 10 11
8 8 7 7 7 8 7 7 6 6 6 6 6 5 5 5 7 6 9 16 19 19 18 17 17 17 17 16 15 12 10 9 9 7 5 3 1 2 4 4 5 6 7 4 3 4 4 3 3 2 2 2 1 1 0 0 1 1 2 2 3 3 3 3 3 6 6 6 6 7 8 8 8 8 9 9 9 10 10 10 10 10 10 11 11
11 8 7 7 8 7 7 6 6 6 5 5 5 4 4 4 4 4 5 4 6 10 15 17 16 15 14 13 11 11 10 9 8 6 4 2 1 3 3 2 2 3 3 2 3 3 4 3 3 3 2 2 2 1 0 1 1 2 2 2 2 3 4 5 5 5 6 7 7 8 8 8 9 9 9 9 9 9 10 10 10 10 10 10 11
8 10 14 9 7 7 6 6 5 5 5 5 5 4 4 3 3 3 4 5 5 5 4 5 9 11 8 8 9 9 8 8 7 9 10 9 6 3 1 1 1 1 2 1 1 2 3 3 3 3 3 3 4 4 4 5 4 4 4 4 4 4 4 4 5 6 6 6 7 7 7 8 8 8 8 9 9 9 10 10 10 10 11 11 11
9 8 8 8 7 6 6 6 5 5 5 5 5 5 4 4 4 3 3 4 5 5 4 4 5 8 11 10 11 9 7 9 11 12 11 10 7 4 2 1 1 2 2 2 2 3 4 5 5 6 5 5 4 4 4 4 4 4 4 4 4 4 4 4 4 4 5 6 7 7 8 7 8 9 9 9 10 10 9 10 10 10 10 11 12
7 7 7 7 6 5 5 5 6 5 5 5 5 4 4 4 4 4 4 4 4 4 4 4 4 4 5 5 7 8 8 8 9 10 10 9 9 5 3 3 2 1 2 4 5 4 5 5 5 5 5 4 3 3 3 2 3 3 3 2 2 3 3 3 4 5 5 6 6 6 7 7 7 8 8 9 9 9 9 10 10 12 12 14 15
8 7 6 6 5 5 5 5 4 5 4 4 4 4 4 4 4 3 3 3 3 3 3 4 3 3 3 3 5 3 2 3 5 5 7 7 6 5 4 4 4 4 4 4 4 4 4 4 4 3 3 3 2 2 1 2 2 2 2 2 3 2 4 4 4 4 4 5 5 5 6 6 7 7 8 8 9 10 10 10 10 11 11 13 11
7 11 13 11 7 5 4 4 4 4 4 4 3 3 3 3 3 2 2 2 3 3 3 4 4 4 3 2 2 1 1 1 1 2 4 5 5 5 5 4 4 4 3 3 2 2 1 2 2 2 2 2 2 2 2 2 2 2 2 2 2 2 2 2 3 3 3 4 4 5 5 6 6 6 7 8 9 9 9 10 10 10 11 11 11
7 7 9 12 6 7 5 4 4 4 4 3 3 3 3 3 3 2 2 3 3 3 3 4 4 3 3 3 2 0 1 2 2 3 4 4 5 5 5 5 4 3 2 2 2 1 1 1 2 2 2 2 2 2 1 1 1 2 2 2 2 2 3 3 3 3 3 4 4 5 5 6 6 7 7 7 8 8 9 10 10 10 10 11 12
6 6 6 7 8 6 6 6 5 5 3 3 2 2 3 3 3 2 2 2 2 3 4 4 4 5 5 6 7 5 2 2 2 2 3 4 4 5 4 4 3 3 2 2 2 2 2 2 2 1 1 1 1 1 1 1 1 1 2 2 2 3 3 3 3 3 4 5 5 5 6 6 6 7 8 8 9 10 10 10 10 10 11 11 12
6 5 5 5 6 5 5 5 5 5 5 5 4 4 3 3 3 3 3 3 3 3 3 4 4 5 7 10 8 7 4 2 2 2 3 4 4 5 5 4 4 3 2 2 2 3 3 3 3 2 2 1 1 1 0 0 1 1 1 2 2 3 3 3 3 4 4 4 5 6 6 7 7 8 9 9 9 9 9 9 10 10 11 11 11
6 5 5 5 5 4 4 4 4 4 4 4 4 4 4 4 4 4 3 3 3 3 3 3 4 4 5 7 7 6 4 3 3 3 3 3 4 5 5 4 3 2 1 2 2 3 3 3 3 3 3 3 3 2 2 2 2 1 2 2 2 3 4 4 4 4 4 5 6 7 8 8 8 8 8 8 9 9 10 10 11 11 11 11 11
5 4 4 4 4 4 4 4 4 4 4 4 4 5 4 4 3 3 3 2 2 3 3 4 4 3 3 3 4 3 3 3 3 3 3 4 4 4 3 3 2 1 1 1 1 2 2 2 2 3 3 3 3 3 3 3 2 2 2 2 3 3 4 5 5 5 5 6 6 7 8 8 9 9 9 10 9 10 10 11 11 11 11 11 12
5 4 4 4 4 4 4 4 3 3 3 3 3 3 3 3 3 3 3 3 3 4 4 4 3 3 3 3 3 3 3 3 2 2 2 3 3 3 2 2 2 1 1 1 1 1 1 1 2 3 3 3 3 3 3 2 2 2 2 2 3 4 4 4 5 6 6 7 7 8 8 8 9 9 10 10 10 11 11 11 10 12 13 12 12
4 4 4 4 4 3 3 3 3 3 3 3 3 3 3 4 4 4 4 4 4 4 3 3 3 3 3 2 2 2 2 2 1 2 2 2 2 2 2 2 2 2 2 2 2 2 2 2 2 2 3 3 3 3 3 3 3 3 3 3 3 4 4 5 6 6 7 7 8 8 9 9 10 10 12 11 11 11 11 12 11 12 12 13 13
4 3 3 3 3 3 3 3 3 3 3 3 3 3 3 3 3 3 4 4 3 3 3 3 2 2 2 2 1 2 2 2 2 2 2 2 2 2 2 2 3 2 2 2 2 2 2 2 2 3 3 3 4 4 4 4 4 3 3 3 3 5 5 5 6 7 7 8 9 9 9 9 10 10 11 11 11 11 12 12 12 14 13 12 12
3 3 3 3 3 2 3 3 3 3 2 2 2 2 2 1 2 2 2 2 2 2 1 1 1 1 1 1 1 1 2 1 2 2 2 2 2 2 3 3 3 3 3 3 2 2 2 3 3 3 3 4 4 4 4 4 4 4 4 4 4 5 7 10 8 9 8 8 8 9 10 10 10 11 11 12 12 11 12 13 12 12 12 12 12
3 3 2 3 2 2 2 2 3 2 2 2 2 2 1 2 2 1 1 1 1 1 1 1 1 1 1 1 1 1 2 2 2 2 2 2 2 2 2 2 3 3 3 3 3 3 3 3 3 3 3 3 4 4 4 4 5 5 5 5 7 12 14 15 11 9 12 10 9 9 10 10 11 12 13 13 12 12 12 13 13 13 12 12 13
3 3 3 2 2 2 2 2 2 1 2 2 1 1 2 2 1 1 1 1 1 1 1 1 1 1 1 1 1 1 1 1 1 1 1 2 2 2 3 3 3 3 3 3 3 3 3 4 4 4 4 3 4 4 4 5 5 5 5 6 11 14 16 17 18 18 12 8 9 9 10 10 11 11 11 11 11 12 13 12 12 12 12 13 13
4 4 3 3 2 2 1 1 1 1 1 1 1 1 1 1 1 1 1 1 1 1 1 1 1 1 1 0 1 1 1 1 1 1 1 1 2 2 2 3 3 3 4 4 4 4 4 4 3 3 3 4 4 5 5 5 5 5 8 13 16 17 18 17 11 11 15 13 10 9 9 10 11 12 11 10 11 11 13 13 13 13 13 13 13
Wind_Direction
240 238 232 231 231 229 231 228 229 227 230 228 227 229 228 221 221 220 217 216 205 205 206 207 207 206 204 204 209 218 225 223 220 217 217 219 219 220 219 219 222 226 224 223 216 213 214 218 219 218 211 216 216 219 220 221 217 222 227 226 233 232 233 245 253 263 261 260 273 282 294 294 288 295 297 299 303 306 305 302 303 299 295 293 295
237 238 234 240 235 233 233 232 228 223 225 225 226 227 226 222 219 212 212 215 206 207 209 209 208 205 206 206 213 225 223 223 219 216 216 216 217 215 217 217 220 223 220 223 217 213 215 217 221 219 211 216 217 219 218 216 216 221 226 228 230 232 229 243 250 261 275 248 267 271 283 284 285 295 294 296 299 305 304 304 302 299 296 300 299
252 242 240 240 237 236 234 230 224 221 224 226 226 224 223 222 209 207 216 216 205 208 210 208 204 203 209 216 222 223 223 222 220 215 213 214 214 214 214 215 218 219 218 218 213 209 211 215 219 217 214 217 218 221 215 217 217 222 225 222 231 234 233 238 249 255 271 277 271 284 277 285 285 293 294 296 295 293 295 297 300 301 299 297 294
248 245 241 240 239 236 232 230 226 222 221 223 225 223 218 213 202 213 215 212 206 205 216 218 215 212 221 218 218 220 218 218 215 212 211 211 213 215 212 212 212 210 213 215 213 208 212 214 217 213 209 215 217 218 218 216 215 220 226 227 227 233 233 236 243 258 269 282 273 272 288 289 284 291 301 291 287 292 300 305 302 294 296 296 296
244 244 238 241 238 232 233 225 221 220 221 222 221 216 210 208 198 205 211 215 212 222 222 221 220 218 216 217 217 216 213 209 209 211 212 209 210 212 211 208 209 212 212 215 211 210 212 213 212 207 208 216 219 218 212 215 216 218 226 227 225 232 234 238 248 254 269 274 278 272 281 287 301 294 282 286 298 305 305 295 295 299 299 299 295
245 247 244 241 243 232 231 221 219 219 218 218 215 208 205 200 199 199 205 211 216 219 215 208 210 213 216 216 216 214 212 212 211 212 211 203 203 209 210 208 211 211 213 212 211 209 209 212 212 207 208 213 219 216 210 214 213 217 221 221 222 224 231 241 248 254 258 264 271 287 285 282 283 277 311 344 328 312 304 302 302 295 299 302 299
252 248 251 246 253 247 238 229 221 218 216 214 199 193 198 200 195 201 197 203 206 213 211 209 207 208 211 212 214 213 212 212 213 212 210 206 204 205 208 209 209 210 212 211 209 207 209 212 212 207 208 212 216 213 206 209 210 217 214 219 221 220 232 234 247 255 263 280 278 274 283 276 275 282 293 79 309 290 298 312 310 307 307 305 303
253 247 243 243 241 243 234 235 244 239 230 212 201 200 194 194 205 202 200 208 210 211 206 207 207 205 210 210 212 211 211 211 212 210 207 206 205 204 207 207 206 207 207 208 206 208 210 209 209 205 206 210 213 212 199 206 200 212 206 205 206 217 236 253 247 238 251 264 271 276 275 281 284 266 273 307 300 291 294 316 303 305 305 308 300
242 236 239 241 242 236 244 243 234 230 220 215 205 199 199 203 203 203 203 209 209 207 205 204 205 208 211 209 202 200 207 208 205 201 200 203 204 206 204 201 203 201 206 206 206 205 199 187 173 150 131 129 134 136 149 167 182 191 190 168 170 202 220 216 228 235 245 248 268 274 272 271 273 281 286 286 285 293 307 300 292 295 305 304 292
239 239 235 239 239 232 235 226 222 214 213 214 212 202 203 204 200 201 205 205 203 196 189 200 204 204 201 190 202 208 211 208 199 197 196 197 199 200 196 202 201 201 200 199 187 160 136 140 120 128 129 131 128 132 135 132 139 190 181 181 195 207 218 226 230 238 247 257 256 255 257 259 256 255 268 272 285 291 288 286 297 305 311 297 278
240 244 249 246 242 225 219 209 190 209 213 209 204 208 210 203 199 202 203 200 193 177 189 191 195 199 199 194 193 197 208 204 194 195 197 196 195 195 194 195 193 196 195 185 175 143 134 126 142 136 132 131 134 141 143 147 154 157 171 205 215 213 219 226 233 231 229 233 241 241 245 257 261 264 263 281 285 283 288 302 298 310 321 338 327
242 241 243 255 244 233 224 202 202 207 201 211 209 208 200 188 184 182 169 177 178 149 181 196 188 188 189 195 199 196 199 190 187 191 193 196 198 192 183 176 177 183 180 175 157 148 151 152 146 150 163 174 166 156 148 144 152 157 171 189 206 232 233 226 214 207 215 220 230 236 243 251 268 272 276 281 281 283 290 293 288 291 301 297 282
236 247 250 247 246 237 226 215 214 205 207 207 197 187 191 194 198 190 196 189 164 179 188 176 173 172 180 183 190 187 185 181 175 172 171 170 171 161 152 141 128 141 108 114 119 127 144 154 154 161 162 144 170 190 189 175 152 147 153 171 187 187 201 219 242 228 218 220 229 242 234 248 261 261 261 267 327 290 295 289 286 285 285 279 271
229 239 239 233 233 222 216 217 220 214 195 194 196 192 191 202 198 185 159 162 175 174 169 167 166 177 185 178 175 182 178 184 178 171 164 160 155 151 157 155 149 151 156 156 157 168 177 176 176 182 183 181 196 187 184 183 188 195 207 213 217 218 227 238 229 228 229 228 229 237 244 236 253 270 282 292 288 283 290 286 290 292 285 273 282
220 226 227 224 216 210 212 212 218 208 196 191 190 196 199 197 189 185 178 177 180 179 174 176 181 178 178 177 178 180 182 180 183 176 168 154 149 142 129 134 137 158 158 162 169 174 178 178 181 184 183 188 192 186 181 185 182 185 194 201 207 209 214 218 221 222 221 224 231 244 254 259 263 273 276 278 280 282 285 289 299 296 294 292 283
226 220 226 223 211 206 202 210 211 200 193 191 194 195 194 189 184 180 174 172 163 146 161 161 168 175 174 165 166 166 169 180 182 178 166 160 153 142 144 147 150 157 157 161 162 168 172 172 175 183 185 194 186 176 177 173 173 177 191 203 209 214 223 226 231 236 228 227 227 236 246 255 279 279 288 291 290 292 297 295 288 283 284 284 275
232 229 228 221 206 202 203 205 204 194 188 189 195 193 186 187 185 173 168 169 165 177 175 177 170 167 169 177 170 167 163 182 181 176 167 158 155 152 149 148 153 160 159 163 165 166 175 183 183 184 185 194 175 181 187 174 168 187 195 205 212 218 232 235 216 225 233 243 252 266 277 278 274 276 279 281 279 283 292 289 277 274 278 284 286
231 224 222 215 203 202 204 202 199 189 185 193 193 190 184 183 180 178 174 168 173 177 163 156 163 171 173 181 182 163 163 164 174 173 165 167 171 156 162 154 155 160 154 158 158 172 188 173 183 172 180 186 170 187 185 192 190 193 201 207 225 241 253 230 234 242 230 245 256 263 268 279 283 275 273 270 270 272 256 249 269 291 271 267 278
233 225 221 208 204 203 201 202 201 194 194 199 188 177 185 184 167 170 165 155 153 150 151 156 157 167 185 180 163 157 144 152 170 171 167 167 169 159 158 155 150 164 160 159 162 164 163 176 196 192 189 164 173 186 187 191 203 197 205 219 241 248 238 188 226 263 282 285 278 267 263 254 257 266 266 262 258 256 249 253 262 256 261 268 277
241 240 228 221 207 203 195 205 206 196 200 197 184 183 158 146 167 171 159 158 155 161 162 155 155 161 154 149 166 160 141 148 167 169 170 167 174 164 170 163 168 161 167 159 156 161 158 166 193 209 201 171 175 186 190 199 206 200 204 225 247 280 12 345 285 291 289 272 271 271 272 272 267 261 262 258 249 239 245 252 252 252 259 266 273
252 224 221 214 204 204 202 202 206 212 210 198 183 176 173 173 163 163 154 154 147 154 154 150 139 138 145 138 136 134 137 147 160 170 171 170 170 177 179 198 149 152 147 150 153 150 154 158 153 178 195 184 180 174 179 189 206 215 215 228 234 294 337 297 275 235 272 270 266 262 256 254 254 254 257 257 253 248 247 241 245 253 259 266 270
236 229 222 216 210 203 202 210 211 207 199 180 174 182 175 165 166 167 162 153 150 134 145 150 147 137 131 130 123 122 126 141 147 159 162 164 168 185 180 169 166 145 134 133 132 138 146 147 152 147 163 166 176 183 204 209 214 232 238 243 251 252 261 271 271 264 257 252 255 262 271 276 281 276 272 266 262 250 252 257 253 257 260 260 259
240 224 217 210 216 213 209 205 204 200 193 189 185 183 166 166 172 171 155 155 147 142 155 155 143 138 134 133 126 119 123 121 136 146 156 161 163 159 136 127 120 126 123 132 142 132 121 127 110 116 162 176 197 223 244 261 263 246 251 256 259 256 253 246 242 246 247 254 268 286 300 300 299 295 288 286 280 271 270 272 270 267 266 264 266
236 219 217 218 210 207 204 197 196 182 191 184 186 176 169 156 159 170 170 155 152 153 160 160 150 144 145 139 137 130 124 122 122 125 139 146 142 133 130 130 131 126 127 129 129 129 142 153 159 170 195 209 237 269 277 267 239 253 258 266 260 228 228 218 218 227 249 273 291 302 307 310 299 289 285 287 292 290 280 265 259 253 252 256 253
240 231 221 215 211 206 189 179 169 169 172 179 175 172 169 170 168 176 164 163 158 157 160 165 156 150 141 141 138 131 126 121 120 110 112 115 117 121 121 119 119 116 109 118 125 145 151 167 181 197 214 222 233 246 255 246 248 246 247 228 212 202 196 201 208 221 273 298 305 301 298 294 287 287 287 286 275 266 263 260 248 248 250 255 256
241 236 225 191 177 151 163 160 141 125 155 168 170 165 167 174 176 166 173 174 167 152 157 156 151 146 142 135 131 130 128 124 120 113 109 110 110 116 121 118 118 104 97 119 124 129 167 207 212 216 208 209 182 190 197 195 205 220 209 195 184 178 180 176 221 262 300 304 303 296 297 297 290 286 277 267 271 275 276 279 283 277 269 272 276
260 240 169 131 115 130 152 166 155 147 155 147 153 153 156 180 334 173 178 169 168 168 155 156 148 145 143 140 134 132 136 131 127 129 132 126 126 128 126 123 121 122 118 131 147 171 192 202 201 192 168 178 192 193 197 199 204 197 183 179 175 173 174 199 312 309 304 305 301 299 296 295 291 281 278 283 282 279 278 280 280 281 282 281 282
286 46 88 115 125 121 118 99 107 135 109 111 130 130 113 108 132 102 340 303 207 170 164 158 153 150 144 138 130 132 141 147 143 139 136 134 132 141 149 143 147 156 149 153 157 168 165 178 179 167 162 168 176 178 178 180 180 177 165 171 176 213 227 225 228 261 273 280 288 290 289 289 289 289 287 281 281 281 279 278 280 284 284 286 283
57 70 86 98 100 103 107 102 89 85 78 58 45 40 61 85 81 69 38 9 352 335 126 85 72 66 82 102 129 138 139 134 115 75 104 114 128 150 159 157 154 159 165 158 149 154 159 162 161 169 177 179 178 177 173 170 163 149 162 216 223 286 306 341 336 328 316 307 297 295 292 289 284 284 283 282 280 284 284 281 276 279 283 278 274
57 52 48 67 80 96 103 102 96 89 88 92 87 70 58 60 67 82 71 54 54 43 44 69 71 94 97 68 49 73 85 78 84 92 103 112 120 142 150 148 154 156 162 169 166 158 171 169 172 172 172 175 175 163 155 132 115 79 29 351 316 330 335 331 321 313 313 303 297 292 286 285 283 283 285 285 287 285 283 275 279 278 279 277 280
67 60 52 55 52 71 89 95 93 103 107 104 89 91 87 60 58 64 69 72 69 67 70 71 68 62 74 93 73 72 81 89 94 97 96 107 134 152 166 166 166 164 155 145 161 172 164 166 163 162 165 160 151 128 96 72 29 20 344 346 336 328 323 313 313 314 309 302 294 288 284 283 285 288 287 289 290 290 286 279 277 279 276 279 281
54 45 50 55 49 44 49 50 71 74 69 84 105 111 91 93 64 51 57 63 65 68 68 68 69 72 71 74 83 78 77 81 84 81 82 90 114 175 236 225 202 177 173 180 159 161 162 160 161 159 151 136 119 93 69 34 341 335 336 331 323 323 313 309 313 313 304 297 291 288 289 289 289 288 288 288 287 286 285 285 283 283 284 281 280
47 50 49 52 55 49 50 52 51 55 63 61 50 46 74 87 93 84 56 57 60 59 59 61 66 69 71 73 78 84 87 84 81 79 77 70 45 253 235 227 220 195 172 187 175 153 157 158 148 134 121 110 111 115 144 344 328 325 320 316 314 311 307 306 304 292 294 300 303 298 299 301 301 299 297 295 294 293 292 291 289 287 288 289 287
47 43 35 37 51 49 49 49 44 44 46 53 58 58 46 55 92 103 106 96 69 57 50 48 51 59 64 71 77 82 84 86 82 80 74 65 245 233 220 237 203 199 218 199 161 151 152 144 125 117 111 109 101 89 25 311 304 304 304 315 329 339 354 3 356 339 330 319 310 306 304 299 299 299 296 293 291 293 295 295 296 296 296 293 293
33 40 42 39 54 55 56 53 52 60 51 48 49 48 56 51 69 80 97 100 92 75 59 44 50 65 72 68 70 77 90 101 102 96 84 77 73 79 112 204 221 5 24 42 115 122 112 114 116 105 92 74 48 40 40 33 27 27 18 7 356 352 346 338 326 314 305 303 300 295 295 298 298 294 295 297 299 298 296 296 296 296 295 296 295
24 27 24 28 37 47 48 44 49 53 56 55 56 64 60 51 50 52 64 79 92 108 96 74 79 73 68 58 53 55 71 89 89 87 88 84 79 90 120 117 61 33 30 35 53 67 60 49 54 57 57 57 48 41 29 20 12 2 354 343 330 321 308 301 299 301 303 298 293 296 302 303 304 307 307 301 296 295 298 303 305 308 310 310 307
31 29 29 26 26 29 38 49 49 48 58 60 64 65 67 67 65 62 60 62 75 80 88 106 110 91 72 52 37 45 59 68 78 86 85 86 87 91 103 93 89 81 47 28 25 33 54 53 51 53 51 51 39 21 7 356 346 339 326 326 317 302 293 305 305 302 297 295 300 307 308 306 308 306 305 306 308 312 311 311 308 304 301 297 297
28 30 26 28 22 21 25 30 31 41 42 49 63 72 74 66 65 65 71 78 80 87 88 97 85 79 70 58 48 44 44 86 105 95 81 74 70 75 76 73 65 64 62 47 30 34 45 48 46 52 45 48 46 24 360 337 339 330 326 317 309 300 312 302 298 307 311 308 308 312 315 314 317 320 319 313 309 307 304 302 302 302 301 302 303
14 24 29 31 36 38 32 24 23 23 30 35 34 47 67 81 83 81 85 95 100 102 110 105 96 91 73 66 53 61 100 113 95 84 77 74 69 67 66 63 66 73 60 53 30 29 34 59 53 61 60 54 50 35 21 351 344 330 331 319 313 319 329 334 330 324 321 316 319 318 317 312 313 311 308 303 298 299 301 304 303 302 302 301 299
11 9 15 18 20 24 30 37 42 42 31 29 30 37 46 53 59 69 89 111 120 122 115 99 94 80 55 37 347 51 93 102 76 70 81 79 75 67 64 61 56 50 38 15 12 355 357 23 38 57 69 71 69 63 50 351 334 324 327 321 321 324 327 333 326 326 320 323 317 310 306 305 306 304 299 292 292 295 296 295 295 295 296 296 298
7 10 9 17 19 19 20 21 23 24 30 44 60 61 65 71 76 75 76 65 70 71 79 89 80 63 52 45 36 45 75 86 91 84 87 91 92 90 84 78 69 52 33 12 351 347 348 6 11 42 64 94 91 95 67 27 327 321 320 321 324 320 321 323 319 317 318 315 311 307 306 305 304 303 297 294 295 294 292 293 295 297 297 297 296
5 10 10 9 8 17 26 30 24 14 16 15 19 25 34 43 49 61 63 69 74 83 91 89 77 64 49 45 43 42 59 63 61 82 88 92 95 95 89 81 69 55 28 9 1 348 348 349 342 345 354 358 39 5 358 257 279 300 305 316 315 318 314 313 312 311 309 303 302 299 297 295 293 290 286 288 290 291 291 289 290 291 291 292 294
2 8 10 12 14 18 17 16 13 12 21 19 24 29 31 27 31 34 48 62 76 91 111 97 81 71 53 41 39 34 43 41 38 39 49 65 72 75 72 68 61 53 42 15 6 360 349 335 329 328 333 327 320 311 303 293 306 299 300 309 312 308 305 303 306 306 308 304 297 294 292 288 285 282 283 285 286 286 284 285 284 284 283 285 286
358 5 13 17 22 24 23 25 21 23 21 23 22 22 19 16 20 25 30 37 52 54 62 69 79 72 64 40 41 48 49 40 34 32 35 51 57 59 55 55 50 32 19 17 11 6 341 326 320 318 316 303 304 305 296 293 295 303 305 314 310 306 304 305 307 307 306 303 298 293 289 285 283 284 284 284 284 282 281 279 280 281 284 285 284
4 6 10 16 21 29 29 35 25 32 28 28 33 29 28 26 29 26 28 31 42 56 57 58 53 56 52 48 50 50 47 41 27 35 39 51 55 53 52 36 21 357 343 326 4 2 339 314 303 292 293 291 296 296 295 302 306 306 319 313 303 300 300 302 302 300 298 291 289 290 288 289 289 289 286 285 282 283 283 283 283 286 285 282 282
360 4 8 16 18 24 26 31 35 39 37 42 40 45 43 36 28 28 33 36 39 39 37 34 35 38 41 42 48 46 44 52 40 45 46 42 46 31 26 12 351 334 337 343 348 343 327 304 283 282 286 294 302 311 314 315 319 320 308 298 290 288 292 290 288 282 280 281 283 284 287 289 288 286 284 285 285 284 285 285 284 281 279 282 282
2 10 12 21 19 22 23 26 34 31 45 39 46 35 48 34 29 39 46 45 42 43 36 33 25 29 37 33 32 32 28 41 36 41 43 38 31 18 14 1 349 341 341 342 341 330 320 309 305 299 299 304 312 315 323 331 331 324 318 304 294 286 282 279 276 273 273 273 274 274 273 274 278 287 289 291 290 290 288 285 283 281 281 281 281
1 10 10 8 14 18 21 26 25 25 36 34 33 29 35 41 50 51 49 43 44 45 47 48 59 32 44 3 41 27 27 25 35 36 30 28 18 14 4 353 346 341 332 324 311 323 318 314 314 313 317 326 330 330 331 327 325 316 308 304 298 289 280 278 278 278 273 271 272 278 280 284 288 289 290 289 288 285 284 282 282 282 283 283 283
353 354 359 5 9 13 13 12 14 18 14 11 13 28 36 56 62 65 50 54 50 53 51 42 33 45 37 7 27 25 25 24 24 20 28 9 9 354 351 343 333 328 326 323 317 320 313 311 311 313 319 324 332 328 319 313 310 312 307 300 288 283 283 284 283 283 283 280 279 282 284 283 284 285 287 286 283 281 280 281 282 283 282 279 279
347 349 349 352 4 2 12 13 17 14 11 15 20 16 24 28 12 23 29 27 33 37 53 42 38 9 32 6 29 14 25 20 15 21 5 4 351 348 339 335 333 332 329 327 322 319 320 321 322 323 323 318 317 319 316 315 309 300 294 285 284 287 287 286 284 282 286 298 296 293 289 286 283 283 285 286 285 284 284 283 284 285 285 284 280
347 347 347 346 346 350 354 1 12 17 13 19 25 16 16 8 12 6 17 356 351 348 20 19 13 353 14 3 20 2 9 352 359 353 346 345 342 335 331 332 333 334 328 329 330 327 322 322 317 317 317 317 319 320 315 306 297 288 287 285 285 285 285 286 292 306 311 307 302 296 290 284 284 287 287 289 290 290 291 293 293 291 289 287 286